Time,TemperatureF,DewpointF,PressureIn,WindDirection,WindDirectionDegrees,WindSpeedMPH,WindSpeedGustMPH,Humidity,HourlyPrecipIn,Conditions,Clouds,dailyrainin,SoftwareType,DateUTC
2013-07-26 00:07:00,69.3,61.0,30.03,SSE,156,0.0,4.0,76,0.00,,,0.00,weatherlink.com 1.10,2013-07-26 05:07:00,
2013-07-26 00:22:00,69.1,62.0,30.02,SSE,156,1.0,5.0,77,0.00,,,0.00,weatherlink.com 1.10,2013-07-26 05:22:00,
2013-07-26 00:37:00,69.3,61.0,30.02,SSE,156,1.0,6.0,76,0.00,,,0.00,weatherlink.com 1.10,2013-07-26 05:37:00,
2013-07-26 00:52:00,69.2,62.0,30.01,SSE,156,2.0,4.0,77,0.00,,,0.00,weatherlink.com 1.10,2013-07-26 05:52:00,
2013-07-26 01:07:00,68.7,61.0,30.01,SSE,156,1.0,4.0,77,0.00,,,0.00,weatherlink.com 1.10,2013-07-26 06:07:00,
2013-07-26 01:22:00,68.3,61.0,30.00,SSE,156,2.0,6.0,78,0.00,,,0.00,weatherlink.com 1.10,2013-07-26 06:22:00,
2013-07-26 01:37:00,68.0,61.0,30.01,SSE,156,0.0,3.0,78,0.00,,,0.00,weatherlink.com 1.10,2013-07-26 06:37:00,
2013-07-26 01:52:00,67.9,61.0,30.00,SSE,156,4.0,5.0,78,0.00,,,0.00,weatherlink.com 1.10,2013-07-26 06:52:00,
2013-07-26 02:07:00,67.9,61.0,29.99,SSE,156,5.0,5.0,78,0.00,,,0.00,weatherlink.com 1.10,2013-07-26 07:07:00,
2013-07-26 02:22:00,67.6,61.0,29.99,SSE,156,1.0,4.0,79,0.00,,,0.00,weatherlink.com 1.10,2013-07-26 07:22:00,
2013-07-26 02:37:00,67.6,61.0,29.98,SSE,156,2.0,6.0,79,0.00,,,0.00,weatherlink.com 1.10,2013-07-26 07:37:00,
2013-07-26 02:52:00,67.5,61.0,29.98,SSE,156,0.0,4.0,80,0.00,,,0.00,weatherlink.com 1.10,2013-07-26 07:52:00,
2013-07-26 03:07:00,67.1,61.0,29.98,SSE,156,3.0,4.0,81,0.00,,,0.00,weatherlink.com 1.10,2013-07-26 08:07:00,
2013-07-26 03:22:00,67.3,61.0,29.98,SSE,156,4.0,6.0,79,0.00,,,0.00,weatherlink.com 1.10,2013-07-26 08:22:00,
2013-07-26 03:37:00,67.3,60.0,29.98,SSE,156,0.0,6.0,78,0.00,,,0.00,weatherlink.com 1.10,2013-07-26 08:37:00,
2013-07-26 03:52:00,67.8,61.0,29.99,South,178,1.0,7.0,79,0.00,,,0.00,weatherlink.com 1.10,2013-07-26 08:52:00,
2013-07-26 04:07:00,67.1,61.0,29.99,South,178,0.0,1.0,81,0.00,,,0.00,weatherlink.com 1.10,2013-07-26 09:07:00,
2013-07-26 04:22:00,67.2,61.0,29.99,South,178,0.0,2.0,80,0.00,,,0.00,weatherlink.com 1.10,2013-07-26 09:22:00,
2013-07-26 04:37:00,67.4,61.0,29.99,South,178,0.0,2.0,80,0.00,,,0.00,weatherlink.com 1.10,2013-07-26 09:37:00,
2013-07-26 04:52:00,67.5,61.0,29.99,SSE,161,0.0,7.0,80,0.00,,,0.00,weatherlink.com 1.10,2013-07-26 09:52:00,
2013-07-26 05:07:00,67.2,61.0,29.99,SSE,152,1.0,4.0,81,0.00,,,0.00,weatherlink.com 1.10,2013-07-26 10:07:00,
2013-07-26 05:22:00,67.2,61.0,29.98,SSE,152,3.0,6.0,81,0.00,,,0.00,weatherlink.com 1.10,2013-07-26 10:22:00,
2013-07-26 05:37:00,66.9,61.0,29.98,SSE,150,3.0,9.0,81,0.00,,,0.00,weatherlink.com 1.10,2013-07-26 10:37:00,
2013-07-26 05:52:00,66.5,61.0,29.98,SSE,148,1.0,7.0,82,0.00,,,0.00,weatherlink.com 1.10,2013-07-26 10:52:00,
2013-07-26 06:07:00,66.5,62.0,29.97,SSE,147,3.0,6.0,84,0.00,,,0.00,weatherlink.com 1.10,2013-07-26 11:07:00,
2013-07-26 06:22:00,66.5,61.0,29.97,SE,146,4.0,6.0,83,0.00,,,0.00,weatherlink.com 1.10,2013-07-26 11:22:00,
2013-07-26 06:37:00,66.2,61.0,29.98,SE,144,0.0,7.0,82,0.00,,,0.00,weatherlink.com 1.10,2013-07-26 11:37:00,
2013-07-26 06:52:00,66.3,61.0,29.98,SE,144,2.0,3.0,82,0.00,,,0.00,weatherlink.com 1.10,2013-07-26 11:52:00,
2013-07-26 07:07:00,66.6,61.0,29.98,SE,144,0.0,5.0,81,0.00,,,0.00,weatherlink.com 1.10,2013-07-26 12:07:00,
2013-07-26 07:22:00,66.8,60.0,29.99,SSE,155,0.0,4.0,80,0.00,,,0.00,weatherlink.com 1.10,2013-07-26 12:22:00,
2013-07-26 07:37:00,66.9,61.0,30.00,SSE,155,1.0,4.0,80,0.00,,,0.00,weatherlink.com 1.10,2013-07-26 12:37:00,
2013-07-26 07:52:00,66.5,61.0,30.01,SSE,155,0.0,3.0,83,0.00,,,0.00,weatherlink.com 1.10,2013-07-26 12:52:00,
2013-07-26 08:07:00,65.6,62.0,30.01,SSE,155,2.0,4.0,87,0.02,,,0.02,weatherlink.com 1.10,2013-07-26 13:07:00,
2013-07-26 08:22:00,64.9,61.0,30.01,SSE,155,0.0,2.0,88,0.04,,,0.04,weatherlink.com 1.10,2013-07-26 13:22:00,
2013-07-26 08:37:00,64.4,62.0,30.00,SSE,155,0.0,3.0,90,0.09,,,0.09,weatherlink.com 1.10,2013-07-26 13:37:00,
2013-07-26 08:52:00,63.9,61.0,30.00,SSE,157,0.0,5.0,91,0.15,,,0.15,weatherlink.com 1.10,2013-07-26 13:52:00,
2013-07-26 09:07:00,63.7,61.0,30.00,SSE,159,0.0,6.0,92,0.18,,,0.21,weatherlink.com 1.10,2013-07-26 14:07:00,
2013-07-26 09:22:00,63.7,62.0,30.00,South,178,0.0,4.0,93,0.19,,,0.24,weatherlink.com 1.10,2013-07-26 14:22:00,
2013-07-26 09:37:00,63.9,62.0,30.00,South,186,5.0,8.0,94,0.16,,,0.25,weatherlink.com 1.10,2013-07-26 14:37:00,
2013-07-26 09:52:00,64.1,62.0,30.00,South,188,2.0,6.0,94,0.10,,,0.26,weatherlink.com 1.10,2013-07-26 14:52:00,
2013-07-26 10:07:00,64.4,63.0,30.00,SSW,203,0.0,7.0,94,0.05,,,0.26,weatherlink.com 1.10,2013-07-26 15:07:00,
2013-07-26 10:22:00,64.7,63.0,29.99,SSE,159,5.0,7.0,94,0.03,,,0.27,weatherlink.com 1.10,2013-07-26 15:22:00,
2013-07-26 10:37:00,64.5,63.0,29.98,SSE,163,4.0,9.0,94,0.06,,,0.31,weatherlink.com 1.10,2013-07-26 15:37:00,
2013-07-26 10:52:00,64.9,64.0,29.98,SSE,155,3.0,6.0,95,0.08,,,0.34,weatherlink.com 1.10,2013-07-26 15:52:00,
2013-07-26 11:07:00,65.7,64.0,29.98,SSE,154,6.0,6.0,95,0.09,,,0.35,weatherlink.com 1.10,2013-07-26 16:07:00,
2013-07-26 11:22:00,66.3,65.0,29.97,SE,139,5.0,11.0,95,0.08,,,0.35,weatherlink.com 1.10,2013-07-26 16:22:00,
2013-07-26 11:37:00,67.0,66.0,29.96,SE,138,5.0,9.0,95,0.04,,,0.35,weatherlink.com 1.10,2013-07-26 16:37:00,
2013-07-26 11:52:00,68.4,67.0,29.96,South,169,3.0,9.0,94,0.01,,,0.35,weatherlink.com 1.10,2013-07-26 16:52:00,
2013-07-26 12:07:00,69.4,66.0,29.96,SE,144,6.0,11.0,90,0.00,,,0.35,weatherlink.com 1.10,2013-07-26 17:07:00,
2013-07-26 12:23:00,69.9,66.0,29.96,SE,146,9.0,15.0,88,0.00,,,0.35,weatherlink.com 1.10,2013-07-26 17:23:00,
2013-07-26 12:38:00,69.7,66.0,29.96,SSE,151,5.0,11.0,87,0.00,,,0.35,weatherlink.com 1.10,2013-07-26 17:38:00,
2013-07-26 12:53:00,69.1,66.0,29.95,SSE,159,7.0,12.0,88,0.01,,,0.36,weatherlink.com 1.10,2013-07-26 17:53:00,
2013-07-26 13:08:00,67.7,64.0,29.95,South,191,7.0,14.0,88,0.01,,,0.36,weatherlink.com 1.10,2013-07-26 18:08:00,
2013-07-26 13:23:00,67.6,65.0,29.95,SSW,194,4.0,10.0,90,0.01,,,0.36,weatherlink.com 1.10,2013-07-26 18:23:00,
2013-07-26 13:38:00,68.5,66.0,29.95,South,188,3.0,9.0,91,0.01,,,0.36,weatherlink.com 1.10,2013-07-26 18:38:00,
2013-07-26 13:53:00,69.6,66.0,29.95,SSW,203,1.0,10.0,88,0.00,,,0.36,weatherlink.com 1.10,2013-07-26 18:53:00,
2013-07-26 14:08:00,70.1,66.0,29.95,West,263,1.0,12.0,87,0.00,,,0.36,weatherlink.com 1.10,2013-07-26 19:08:00,
2013-07-26 14:23:00,70.4,66.0,29.94,SSW,213,3.0,8.0,87,0.00,,,0.36,weatherlink.com 1.10,2013-07-26 19:23:00,
2013-07-26 14:38:00,70.4,66.0,29.94,South,185,2.0,6.0,87,0.00,,,0.36,weatherlink.com 1.10,2013-07-26 19:38:00,
2013-07-26 14:53:00,71.0,67.0,29.93,SSW,200,4.0,10.0,87,0.00,,,0.36,weatherlink.com 1.10,2013-07-26 19:53:00,
2013-07-26 15:08:00,71.7,67.0,29.93,SSE,161,3.0,9.0,86,0.00,,,0.36,weatherlink.com 1.10,2013-07-26 20:08:00,
2013-07-26 15:24:00,73.0,68.0,29.91,South,170,5.0,12.0,84,0.00,,,0.36,weatherlink.com 1.10,2013-07-26 20:24:00,
2013-07-26 15:38:00,74.2,68.0,29.90,South,170,7.0,15.0,82,0.00,,,0.36,weatherlink.com 1.10,2013-07-26 20:38:00,
2013-07-26 15:53:00,74.1,68.0,29.90,South,180,2.0,11.0,82,0.00,,,0.36,weatherlink.com 1.10,2013-07-26 20:53:00,
2013-07-26 16:08:00,74.2,68.0,29.89,SW,219,6.0,11.0,82,0.00,,,0.36,weatherlink.com 1.10,2013-07-26 21:08:00,
2013-07-26 16:23:00,75.0,69.0,29.90,South,177,3.0,12.0,81,0.00,,,0.36,weatherlink.com 1.10,2013-07-26 21:23:00,
2013-07-26 16:38:00,74.9,69.0,29.90,SSE,153,5.0,10.0,82,0.00,,,0.36,weatherlink.com 1.10,2013-07-26 21:38:00,
2013-07-26 16:53:00,75.8,69.0,29.90,SW,235,1.0,8.0,80,0.00,,,0.36,weatherlink.com 1.10,2013-07-26 21:53:00,
2013-07-26 17:08:00,76.0,69.0,29.90,SW,224,1.0,8.0,80,0.00,,,0.36,weatherlink.com 1.10,2013-07-26 22:08:00,
2013-07-26 17:23:00,74.6,67.0,29.93,NNW,342,9.0,19.0,77,0.00,,,0.36,weatherlink.com 1.10,2013-07-26 22:23:00,
2013-07-26 17:38:00,67.8,64.0,29.94,WNW,302,7.0,14.0,86,0.04,,,0.40,weatherlink.com 1.10,2013-07-26 22:38:00,
2013-07-26 17:53:00,66.2,64.0,29.92,NW,323,3.0,15.0,91,0.29,,,0.65,weatherlink.com 1.10,2013-07-26 22:53:00,
2013-07-26 18:08:00,66.5,65.0,29.91,NW,326,0.0,2.0,93,0.31,,,0.67,weatherlink.com 1.10,2013-07-26 23:08:00,
2013-07-26 18:23:00,67.2,66.0,29.90,SSW,211,3.0,5.0,94,0.31,,,0.67,weatherlink.com 1.10,2013-07-26 23:23:00,
2013-07-26 18:38:00,68.4,66.0,29.90,South,184,0.0,5.0,93,0.27,,,0.67,weatherlink.com 1.10,2013-07-26 23:38:00,
2013-07-26 18:53:00,70.4,68.0,29.90,South,184,0.0,2.0,91,0.01,,,0.67,weatherlink.com 1.10,2013-07-26 23:53:00,
2013-07-26 19:08:00,72.1,67.0,29.91,NW,316,1.0,6.0,84,0.00,,,0.67,weatherlink.com 1.10,2013-07-27 00:08:00,
2013-07-26 19:23:00,73.7,68.0,29.91,WNW,293,0.0,5.0,81,0.00,,,0.67,weatherlink.com 1.10,2013-07-27 00:23:00,
2013-07-26 19:38:00,72.6,66.0,29.91,NW,319,1.0,7.0,79,0.00,,,0.67,weatherlink.com 1.10,2013-07-27 00:38:00,
2013-07-26 19:53:00,71.1,65.0,29.92,NW,314,3.0,8.0,80,0.00,,,0.67,weatherlink.com 1.10,2013-07-27 00:53:00,
2013-07-26 20:08:00,70.2,65.0,29.92,NW,312,2.0,6.0,82,0.00,,,0.67,weatherlink.com 1.10,2013-07-27 01:08:00,
2013-07-26 20:23:00,68.6,63.0,29.91,NW,316,4.0,8.0,82,0.00,,,0.67,weatherlink.com 1.10,2013-07-27 01:23:00,
2013-07-26 20:38:00,67.7,61.0,29.91,NW,304,2.0,9.0,80,0.00,,,0.67,weatherlink.com 1.10,2013-07-27 01:38:00,
2013-07-26 20:53:00,66.7,61.0,29.92,NW,314,4.0,6.0,81,0.00,,,0.67,weatherlink.com 1.10,2013-07-27 01:53:00,
2013-07-26 21:08:00,66.2,61.0,29.93,NW,313,1.0,4.0,82,0.00,,,0.67,weatherlink.com 1.10,2013-07-27 02:08:00,
2013-07-26 21:23:00,65.6,60.0,29.93,NW,312,3.0,8.0,82,0.00,,,0.67,weatherlink.com 1.10,2013-07-27 02:23:00,
2013-07-26 21:38:00,65.0,60.0,29.94,NW,307,0.0,4.0,83,0.00,,,0.67,weatherlink.com 1.10,2013-07-27 02:38:00,
2013-07-26 21:53:00,64.2,59.0,29.94,NW,307,1.0,4.0,84,0.00,,,0.67,weatherlink.com 1.10,2013-07-27 02:53:00,
2013-07-26 22:08:00,64.2,59.0,29.94,NW,307,0.0,4.0,83,0.00,,,0.67,weatherlink.com 1.10,2013-07-27 03:08:00,
2013-07-26 22:23:00,64.1,59.0,29.94,NW,315,2.0,5.0,83,0.00,,,0.67,weatherlink.com 1.10,2013-07-27 03:23:00,
2013-07-26 22:38:00,63.4,58.0,29.94,NW,312,3.0,5.0,83,0.00,,,0.67,weatherlink.com 1.10,2013-07-27 03:38:00,
2013-07-26 22:53:00,62.8,58.0,29.94,NW,310,2.0,5.0,84,0.00,,,0.67,weatherlink.com 1.10,2013-07-27 03:53:00,
2013-07-26 23:08:00,62.5,58.0,29.94,NW,308,4.0,6.0,84,0.00,,,0.67,weatherlink.com 1.10,2013-07-27 04:08:00,
2013-07-26 23:23:00,62.4,58.0,29.94,NW,306,1.0,4.0,84,0.00,,,0.67,weatherlink.com 1.10,2013-07-27 04:23:00,
2013-07-26 23:38:00,62.1,57.0,29.93,NW,304,0.0,5.0,84,0.00,,,0.67,weatherlink.com 1.10,2013-07-27 04:38:00,
2013-07-26 23:53:00,62.1,57.0,29.93,WNW,303,0.0,4.0,84,0.00,,,0.67,weatherlink.com 1.10,2013-07-27 04:53:00,